{"data":{"norad_id":49153,"epoch":"2026-05-25T03:23:14.657568Z","epoch_age_seconds":66007,"freshness":"FRESH","line1":"1 49153U 21082Z   26145.14114187  .00000383  00000+0  39884-4 0  9999","line2":"2 49153  70.0005  61.6948 0002895 269.1964  90.8863 14.98332175259622","mean_motion":14.98332175,"eccentricity":0.0002895,"inclination_deg":70.0005,"raan_deg":61.6948,"arg_perigee_deg":269.1964,"mean_anomaly_deg":90.8863,"bstar":3.9884e-5,"rev_number":25962,"period_min":96.106859615425,"perigee_km":570.03708604972,"apogee_km":574.06124383922,"semimajor_km":6950.1861649445,"source":"CELESTRAK","updated_at":"2026-05-25T13:38:16.788715Z"}}